KB1WCR Weather Reports


time (UTC)temp
C
wind
direction
speed
KPH
gust
KPH
rain 1hr
cm
rain 24hr
cm
rain mn
cm
humidity
%
barometer
mb
20260902211020 18 348 0.0 1.6 0.00 0.00 0.00 86 1021.8
20260902210514 18 317 0.0 0.0 0.00 0.00 0.00 85 1021.8
20260902210013 18 349 1.6 1.6 0.00 0.00 0.00 85 1021.7
20260902205508 17 11 1.6 1.6 0.00 0.00 0.00 85 1021.8
20260902205003 18 251 3.2 3.2 0.00 0.00 0.00 85 1022.2
20260902204502 18 330 1.6 3.2 0.00 0.00 0.00 85 1022.3
20260902203958 18 212 1.6 1.6 0.00 0.00 0.00 84 1022.2
20260902203454 18 240 3.2 3.2 0.00 0.00 0.00 83 1022.4
20260902202952 18 299 0.0 0.0 0.00 0.00 0.00 84 1022.3
20260902202448 18 3 4.8 6.4 0.00 0.00 0.00 84 1022.2
20260902201945 18 327 1.6 1.6 0.00 0.00 0.00 83 1022.1
20260902201440 18 284 1.6 1.6 0.00 0.00 0.00 83 1022.3
20260902200940 18 187 0.0 1.6 0.00 0.00 0.00 84 1022.3
20260902200435 18 304 3.2 3.2 0.00 0.00 0.00 83 1022.2
20260902195930 18 339 0.0 1.6 0.00 0.00 0.00 83 1022.1
20260902195426 18 326 6.4 9.7 0.00 0.00 0.00 82 1022.5
20260902194920 18 263 1.6 3.2 0.00 0.00 0.00 83 1022.7
20260902194419 18 7 1.6 1.6 0.00 0.00 0.00 83 1022.5
20260902193915 18 57 4.8 6.4 0.00 0.00 0.00 82 1022.7
20260902193411 18 48 6.4 9.7 0.00 0.00 0.00 81 1022.9
20260902192909 18 318 0.0 1.6 0.00 0.00 0.00 83 1022.8
20260902192409 18 11 3.2 4.8 0.00 0.00 0.00 83 1022.8
20260902191908 18 259 1.6 3.2 0.00 0.00 0.00 82 1022.7
20260902191404 18 205 1.6 3.2 0.00 0.00 0.00 83 1022.8
20260902190858 18 60 4.8 4.8 0.00 0.00 0.00 83 1022.8
20260902190353 18 68 1.6 3.2 0.00 0.00 0.00 83 1022.8
20260902185849 18 352 3.2 3.2 0.00 0.00 0.00 83 1022.8
20260902185345 18 8 4.8 9.7 0.00 0.00 0.00 82 1023.1
20260902184840 18 95 1.6 1.6 0.00 0.00 0.00 83 1022.9
20260902184335 18 316 1.6 1.6 0.00 0.00 0.00 82 1022.9
20260902183830 18 320 1.6 1.6 0.00 0.00 0.00 83 1022.8
20260902183327 18 239 1.6 3.2 0.00 0.00 0.00 83 1022.9
20260902182822 18 347 1.6 1.6 0.00 0.00 0.00 82 1022.9
20260902182319 18 298 3.2 4.8 0.00 0.00 0.00 82 1022.9
20260902181815 18 287 1.6 1.6 0.00 0.00 0.00 81 1022.9
20260902181310 18 338 0.0 1.6 0.00 0.00 0.00 82 1023.0
20260902180804 19 177 1.6 1.6 0.00 0.00 0.00 83 1023.2
20260902180300 19 281 1.6 1.6 0.00 0.00 0.00 80 1023.2
20260902175755 19 138 1.6 1.6 0.00 0.00 0.00 82 1023.1
20260902175251 19 288 1.6 1.6 0.00 0.00 0.00 82 1023.1
20260902174746 19 249 1.6 3.2 0.00 0.00 0.00 82 1023.0
20260902174242 20 344 1.6 1.6 0.00 0.00 0.00 80 1023.0
20260902173737 19 259 3.2 3.2 0.00 0.00 0.00 81 1022.8
20260902173237 19 247 1.6 3.2 0.00 0.00 0.00 81 1022.9
20260902172731 20 349 3.2 4.8 0.00 0.00 0.00 80 1022.8
20260902172226 20 59 4.8 4.8 0.00 0.00 0.00 79 1022.8
20260902171721 20 37 8.0 9.7 0.00 0.00 0.00 79 1022.7
20260902171216 20 333 1.6 1.6 0.00 0.00 0.00 79 1022.7
20260902170712 20 4 9.7 14.5 0.00 0.00 0.00 77 1022.8
20260902170208 20 137 4.8 4.8 0.00 0.00 0.00 78 1022.7
20260902165702 20 8 1.6 1.6 0.00 0.00 0.00 78 1022.7
20260902165156 20 210 0.0 0.0 0.00 0.00 0.00 79 1022.7
20260902164652 20 323 1.6 1.6 0.00 0.00 0.00 80 1022.9
20260902164150 20 55 6.4 6.4 0.00 0.00 0.00 77 1022.8
20260902163646 20 194 6.4 11.3 0.00 0.00 0.00 77 1022.9
20260902163146 20 255 3.2 3.2 0.00 0.00 0.00 77 1023.0
20260902162644 20 194 3.2 3.2 0.00 0.00 0.00 79 1023.1
20260902162139 20 240 4.8 4.8 0.00 0.00 0.00 76 1023.2
20260902161634 20 199 4.8 4.8 0.00 0.00 0.00 77 1023.3
20260902161130 20 233 0.0 1.6 0.00 0.00 0.00 78 1023.3
20260902160626 20 321 0.0 0.0 0.00 0.00 0.00 78 1023.3
20260902160120 20 202 4.8 4.8 0.00 0.00 0.00 76 1023.3
20260902155613 20 276 0.0 1.6 0.00 0.00 0.00 76 1023.4
20260902155112 20 285 1.6 3.2 0.00 0.00 0.00 77 1023.4
20260902154607 20 243 1.6 1.6 0.00 0.00 0.00 76 1023.4
20260902154103 20 35 1.6 4.8 0.00 0.00 0.00 75 1023.5
20260902153601 20 318 0.0 1.6 0.00 0.00 0.00 75 1023.6
20260902153056 20 333 8.0 11.3 0.00 0.00 0.00 73 1023.7
20260902152553 20 3 1.6 1.6 0.00 0.00 0.00 71 1023.6
20260902152048 20 138 4.8 6.4 0.00 0.00 0.00 72 1023.5
20260902151544 20 6 3.2 4.8 0.00 0.00 0.00 75 1023.5
20260902151043 20 181 3.2 4.8 0.00 0.00 0.00 73 1023.4
20260902150538 20 111 1.6 4.8 0.00 0.00 0.00 77 1023.2
20260902150034 19 41 3.2 3.2 0.00 0.00 0.00 79 1023.2
20260902145529 20 51 1.6 3.2 0.00 0.00 0.00 76 1023.3
20260902145028 20 298 3.2 4.8 0.00 0.00 0.00 77 1023.2
20260902144526 20 333 1.6 3.2 0.00 0.00 0.00 76 1023.2
20260902144025 19 242 3.2 3.2 0.00 0.00 0.00 77 1023.3
20260902143520 20 194 4.8 4.8 0.00 0.00 0.00 77 1023.3
20260902143016 19 228 0.0 0.0 0.00 0.00 0.00 80 1023.4
20260902142512 19 306 1.6 1.6 0.00 0.00 0.00 79 1023.3
20260902142007 19 279 0.0 0.0 0.00 0.00 0.00 81 1023.1
20260902141501 19 319 0.0 0.0 0.00 0.00 0.00 82 1023.0
20260902140956 19 211 1.6 3.2 0.00 0.00 0.00 83 1023.2
20260902140451 18 289 1.6 3.2 0.00 0.00 0.00 85 1023.1
20260902135950 19 351 3.2 3.2 0.00 0.00 0.00 87 1022.8
20260902135446 19 40 1.6 3.2 0.00 0.00 0.00 88 1023.0
20260902134945 18 308 0.0 0.0 0.00 0.00 0.00 89 1022.8
20260902134441 18 45 1.6 3.2 0.00 0.00 0.00 89 1022.8
20260902133936 18 217 1.6 3.2 0.00 0.00 0.00 89 1022.9
20260902133431 18 123 4.8 4.8 0.00 0.00 0.00 90 1023.0
20260902132926 18 328 0.0 1.6 0.00 0.00 0.00 91 1023.0
20260902132421 18 350 3.2 4.8 0.00 0.00 0.00 91 1023.0
20260902131916 18 37 3.2 3.2 0.00 0.00 0.00 90 1023.0
20260902131413 18 359 1.6 3.2 0.00 0.00 0.00 91 1023.0
20260902130912 18 206 3.2 4.8 0.00 0.00 0.00 92 1023.0
20260902130408 17 326 0.0 0.0 0.00 0.00 0.00 94 1022.9
20260902125903 17 299 0.0 0.0 0.00 0.00 0.00 95 1022.9
20260902125359 17 254 1.6 1.6 0.00 0.00 0.00 96 1023.0
20260902124855 17 30 1.6 3.2 0.00 0.00 0.00 97 1023.0
20260902124350 17 324 1.6 1.6 0.00 0.00 0.00 98 1023.0
20260902123845 17 266 0.0 0.0 0.00 0.00 0.00 98 1023.1
20260902123342 16 302 0.0 0.0 0.00 0.00 0.00 99 1022.9
20260902122840 16 314 1.6 1.6 0.00 0.00 0.00 99 1022.9
20260902122336 16 41 3.2 4.8 0.00 0.00 0.00 99 1022.8
20260902121836 16 54 1.6 1.6 0.00 0.00 0.00 99 1023.1
20260902121331 16 352 1.6 1.6 0.00 0.00 0.00 99 1023.1
20260902120826 16 43 1.6 1.6 0.00 0.00 0.00 99 1023.3
20260902120323 16 354 0.0 0.0 0.00 0.00 0.00 99 1023.0
20260902115817 16 317 0.0 0.0 0.00 0.00 0.00 99 1023.0
20260902115314 16 282 0.0 0.0 0.00 0.00 0.00 99 1023.2
20260902114810 16 299 0.0 1.6 0.00 0.00 0.00 99 1022.9
20260902114305 16 282 0.0 1.6 0.00 0.00 0.00 99 1023.0
20260902113759 16 288 1.6 1.6 0.00 0.00 0.00 99 1023.0
20260902113255 16 328 1.6 1.6 0.00 0.00 0.00 99 1023.2
20260902112754 16 306 0.0 0.0 0.00 0.00 0.00 99 1022.9
20260902112252 16 336 1.6 3.2 0.00 0.00 0.00 99 1022.9
20260902111746 16 305 0.0 0.0 0.00 0.00 0.00 99 1022.8
20260902111243 16 304 0.0 0.0 0.00 0.00 0.00 99 1022.7
20260902110738 16 328 0.0 0.0 0.00 0.00 0.00 99 1022.9
20260902110234 16 337 0.0 0.0 0.00 0.00 0.00 99 1022.5
20260902105734 16 332 0.0 0.0 0.00 0.00 0.00 99 1022.7
20260902105229 16 327 0.0 0.0 0.00 0.00 0.00 99 1022.6
20260902104724 16 347 0.0 1.6 0.00 0.00 0.00 99 1022.5
20260902104221 16 18 6.4 6.4 0.00 0.00 0.00 99 1022.3
20260902103720 16 26 3.2 4.8 0.00 0.00 0.00 99 1022.3
20260902103214 16 358 0.0 0.0 0.00 0.00 0.00 99 1022.2
20260902102710 16 297 0.0 1.6 0.00 0.00 0.00 99 1022.5
20260902102207 16 293 0.0 0.0 0.00 0.00 0.00 99 1022.4
20260902101708 16 305 0.0 1.6 0.00 0.00 0.00 99 1022.3
20260902101202 16 316 0.0 0.0 0.00 0.00 0.00 99 1022.3
20260902100656 16 345 0.0 0.0 0.00 0.00 0.00 99 1022.2
20260902100151 16 315 0.0 1.6 0.00 0.00 0.00 99 1022.2
20260902095650 16 311 0.0 0.0 0.00 0.00 0.00 99 1022.2
20260902095144 16 309 0.0 0.0 0.00 0.00 0.00 99 1021.9
20260902094639 16 12 0.0 1.6 0.00 0.00 0.00 99 1022.2
20260902094136 16 31 1.6 1.6 0.00 0.00 0.00 99 1022.3
20260902093635 16 348 1.6 1.6 0.00 0.00 0.00 99 1022.1
20260902093130 16 313 0.0 0.0 0.00 0.00 0.00 99 1022.2
20260902092624 16 324 0.0 0.0 0.00 0.00 0.00 99 1022.4
20260902092120 16 319 0.0 0.0 0.00 0.00 0.00 99 1022.2
20260902091614 16 17 1.6 1.6 0.00 0.00 0.00 99 1022.2
20260902091111 16 326 0.0 0.0 0.00 0.00 0.00 99 1022.2
20260902090607 16 324 0.0 0.0 0.00 0.00 0.00 99 1022.1
20260902090105 16 293 0.0 0.0 0.00 0.00 0.00 99 1022.2
20260902085600 16 69 0.0 0.0 0.00 0.00 0.00 99 1022.2
20260902085055 16 324 0.0 0.0 0.00 0.00 0.00 99 1022.0
20260902084551 16 309 0.0 0.0 0.00 0.00 0.00 99 1022.2
20260902084046 16 330 0.0 0.0 0.00 0.00 0.00 99 1022.1
20260902083536 16 358 0.0 0.0 0.00 0.00 0.00 99 1022.2
20260902083036 16 330 0.0 0.0 0.00 0.00 0.00 99 1022.0
20260902082532 16 315 0.0 0.0 0.00 0.00 0.00 99 1022.2
20260902082028 16 343 0.0 0.0 0.00 0.00 0.00 99 1022.2
20260902081525 16 339 0.0 0.0 0.00 0.00 0.00 99 1022.0
20260902081024 16 311 0.0 0.0 0.00 0.00 0.00 99 1022.1
20260902080520 16 332 0.0 0.0 0.00 0.00 0.00 99 1022.2
20260902080016 16 316 0.0 0.0 0.00 0.00 0.00 99 1022.1
20260902075510 16 303 0.0 0.0 0.00 0.00 0.00 99 1021.9
20260902075006 16 325 0.0 0.0 0.00 0.00 0.00 99 1021.8
20260902074501 16 312 0.0 0.0 0.00 0.00 0.00 99 1021.8
20260902073956 16 341 1.6 1.6 0.00 0.00 0.00 99 1021.7
20260902073452 16 311 0.0 0.0 0.00 0.00 0.00 99 1021.7
20260902072948 16 308 0.0 0.0 0.00 0.00 0.00 99 1021.8
20260902072444 16 311 0.0 0.0 0.00 0.00 0.00 99 1021.6
20260902071940 16 309 0.0 0.0 0.00 0.00 0.00 99 1021.6
20260902071439 16 310 0.0 0.0 0.00 0.00 0.00 99 1021.6
20260902070936 16 308 0.0 0.0 0.00 0.00 0.00 99 1021.5
20260902070431 16 335 0.0 0.0 0.00 0.00 0.00 99 1021.5
20260902065930 16 309 0.0 0.0 0.00 0.00 0.00 99 1021.6
20260902065425 16 300 0.0 0.0 0.00 0.00 0.00 99 1021.6
20260902064921 16 309 0.0 0.0 0.00 0.00 0.00 99 1021.5
20260902064416 16 308 0.0 0.0 0.00 0.00 0.00 99 1021.3
20260902063911 16 303 0.0 0.0 0.00 0.00 0.00 99 1021.4
20260902063411 16 330 0.0 0.0 0.00 0.00 0.00 99 1021.3
20260902062907 16 304 0.0 0.0 0.00 0.00 0.00 99 1021.5
20260902062406 16 312 0.0 0.0 0.00 0.00 0.00 99 1021.4
20260902061905 16 310 0.0 0.0 0.00 0.00 0.00 99 1021.4
20260902061401 16 303 0.0 0.0 0.00 0.00 0.00 99 1021.7
20260902060857 16 306 0.0 0.0 0.00 0.00 0.00 99 1021.5
20260902060352 16 319 0.0 0.0 0.00 0.00 0.00 99 1021.5
20260902055848 16 299 0.0 0.0 0.00 0.00 0.00 99 1021.5
20260902055344 16 328 0.0 0.0 0.00 0.00 0.00 99 1021.7
20260902054839 16 314 0.0 0.0 0.00 0.00 0.00 99 1021.4
20260902054335 16 301 0.0 0.0 0.00 0.00 0.00 99 1021.6
20260902053830 16 305 0.0 0.0 0.00 0.00 0.00 99 1021.2
20260902053325 16 300 0.0 0.0 0.00 0.00 0.00 99 1021.3
20260902052824 16 296 0.0 0.0 0.00 0.00 0.00 99 1021.0
20260902052320 16 311 0.0 0.0 0.00 0.00 0.00 99 1020.9
20260902051820 16 275 1.6 1.6 0.00 0.00 0.00 99 1020.9
20260902051314 16 1 1.6 1.6 0.00 0.00 0.00 99 1020.8
20260902050809 17 304 0.0 0.0 0.00 0.00 0.00 99 1020.8
20260902050308 17 316 0.0 0.0 0.00 0.00 0.00 99 1020.6
20260902045803 17 309 0.0 0.0 0.00 0.00 0.00 99 1020.7
20260902045259 17 342 1.6 1.6 0.00 0.00 0.00 99 1020.6
20260902044755 17 292 0.0 0.0 0.00 0.00 0.00 99 1020.7
20260902044250 17 298 0.0 0.0 0.00 0.00 0.00 99 1020.6
20260902043744 17 297 0.0 0.0 0.00 0.00 0.00 99 1020.7
20260902043240 17 302 0.0 0.0 0.00 0.00 0.00 99 1020.6
20260902042739 17 304 0.0 0.0 0.00 0.00 0.00 99 1020.7
20260902042234 17 314 0.0 0.0 0.00 0.00 0.00 99 1020.6
20260902041730 17 321 0.0 0.0 0.00 0.00 0.00 99 1020.6
20260902041225 17 310 0.0 0.0 0.00 0.00 0.00 99 1020.4
20260902040724 17 306 0.0 0.0 0.00 0.00 0.00 99 1020.4
20260902040220 17 299 0.0 0.0 0.00 0.00 0.00 99 1020.4
20260902035718 17 306 0.0 0.0 0.00 0.00 0.00 99 1020.3
20260902035214 17 322 0.0 0.0 0.00 0.00 0.00 99 1020.5
20260902034713 17 308 0.0 0.0 0.00 0.00 0.00 99 1020.4
20260902034213 17 304 0.0 0.0 0.00 0.00 0.00 99 1020.5
20260902033711 17 333 0.0 0.0 0.00 0.00 0.00 99 1020.4
20260902033206 17 306 0.0 0.0 0.00 0.00 0.00 99 1020.2
20260902032705 17 299 0.0 0.0 0.00 0.00 0.00 99 1020.3
20260902032200 17 296 0.0 0.0 0.00 0.00 0.00 99 1020.3
20260902031654 17 296 0.0 0.0 0.00 0.00 0.00 99 1020.2
20260902031150 17 298 0.0 0.0 0.00 0.00 0.00 99 1020.1
20260902030646 17 308 0.0 0.0 0.00 0.00 0.00 99 1019.9
20260902030145 17 347 1.6 1.6 0.00 0.00 0.00 99 1019.9
20260902025644 17 344 0.0 0.0 0.00 0.00 0.00 99 1019.8
20260902025140 17 317 0.0 1.6 0.00 0.00 0.00 99 1019.7
20260902024635 17 312 0.0 0.0 0.00 0.00 0.00 99 1019.8
20260902024130 17 313 0.0 0.0 0.00 0.00 0.00 99 1019.9
20260902023626 17 301 0.0 0.0 0.00 0.00 0.00 99 1020.0
20260902023120 17 298 0.0 0.0 0.00 0.00 0.00 99 1019.9
20260902022619 17 304 0.0 0.0 0.00 0.00 0.00 99 1019.8
20260902022116 17 296 0.0 0.0 0.00 0.00 0.00 99 1020.0
20260902021611 17 303 0.0 0.0 0.00 0.00 0.00 99 1019.9
20260902021106 17 274 0.0 0.0 0.00 0.00 0.00 99 1020.0
20260902020602 17 329 0.0 0.0 0.00 0.00 0.00 99 1019.9
20260902020057 17 313 0.0 0.0 0.00 0.00 0.00 99 1019.9
20260902015553 17 356 0.0 0.0 0.00 0.00 0.00 99 1019.8
20260902015048 17 311 0.0 0.0 0.00 0.00 0.00 99 1020.0
20260902014544 17 330 0.0 0.0 0.00 0.00 0.00 99 1020.0
20260902014039 17 304 0.0 0.0 0.00 0.00 0.00 99 1020.2
20260902013539 17 318 0.0 0.0 0.00 0.00 0.00 99 1020.2
20260902013035 17 312 0.0 0.0 0.00 0.00 0.00 99 1020.1
20260902012530 17 305 0.0 0.0 0.00 0.00 0.00 99 1020.1
20260902012025 17 319 0.0 0.0 0.00 0.00 0.00 99 1020.1
20260902011520 17 322 0.0 0.0 0.00 0.00 0.00 99 1020.1
20260902011015 17 317 0.0 0.0 0.00 0.00 0.00 99 1020.0
20260902010515 17 292 0.0 0.0 0.00 0.00 0.00 99 1020.0
20260902010010 17 307 0.0 0.0 0.00 0.00 0.00 99 1019.9
20260902005508 17 269 0.0 0.0 0.00 0.00 0.00 99 1019.7
20260902005005 17 194 0.0 1.6 0.00 0.00 0.00 99 1019.8
20260902004504 17 312 0.0 0.0 0.00 0.00 0.00 99 1019.7
20260902003959 17 253 0.0 0.0 0.00 0.00 0.00 99 1020.0
20260902003454 17 301 0.0 0.0 0.00 0.00 0.00 99 1019.7
20260902002950 17 289 0.0 0.0 0.00 0.00 0.00 99 1019.5
20260902002445 17 311 0.0 0.0 0.00 0.00 0.00 99 1019.5
20260902001944 17 310 0.0 0.0 0.00 0.00 0.00 99 1019.4
20260902001439 17 327 1.6 1.6 0.00 0.00 0.00 99 1019.6
20260902000934 17 325 0.0 0.0 0.00 0.00 0.00 99 1019.4
20260902000429 17 3 1.6 1.6 0.00 0.00 0.00 99 1019.4
20260901235924 17 34 0.0 1.6 0.00 0.00 0.00 99 1019.4
20260901235419 17 317 0.0 0.0 0.00 0.00 0.00 99 1019.3
20260901234914 17 322 0.0 0.0 0.00 0.00 0.00 99 1019.4
20260901234408 17 314 0.0 0.0 0.00 0.00 0.00 99 1019.3
20260901233903 17 315 0.0 0.0 0.00 0.00 0.00 99 1019.5
20260901233358 17 19 0.0 0.0 0.00 0.00 0.00 99 1019.4
20260901232855 17 314 0.0 0.0 0.00 0.00 0.00 99 1019.3
20260901232349 17 317 0.0 1.6 0.00 0.00 0.00 99 1019.5
20260901231845 17 348 1.6 1.6 0.00 0.00 0.00 99 1019.5
20260901231341 17 337 1.6 3.2 0.00 0.00 0.00 99 1019.3
20260901230837 17 289 1.6 1.6 0.00 0.00 0.00 99 1019.3
20260901230336 17 292 3.2 3.2 0.00 0.00 0.00 99 1019.2
20260901225832 17 300 1.6 1.6 0.00 0.00 0.00 99 1019.5
20260901225331 17 46 1.6 1.6 0.00 0.00 0.00 99 1019.1
20260901224826 18 46 4.8 6.4 0.00 0.00 0.00 98 1019.0
20260901224323 18 36 1.6 3.2 0.00 0.00 0.00 98 1019.1
20260901223819 18 331 0.0 1.6 0.00 0.00 0.00 97 1019.1
20260901223314 18 338 1.6 3.2 0.00 0.00 0.00 97 1019.0
20260901222810 18 5 1.6 1.6 0.00 0.00 0.00 97 1019.0
20260901222306 18 194 1.6 1.6 0.00 0.00 0.00 97 1018.8
20260901221802 18 216 3.2 4.8 0.00 0.00 0.00 96 1019.0
20260901221256 18 199 4.8 6.4 0.00 0.00 0.00 95 1019.0
20260901220750 18 0 1.6 1.6 0.00 0.00 0.00 95 1019.0
20260901220244 18 112 3.2 4.8 0.00 0.00 0.00 94 1019.0
20260901215743 19 296 0.0 1.6 0.00 0.00 0.00 94 1019.0
20260901215237 19 281 3.2 3.2 0.00 0.00 0.00 93 1019.2
20260901214736 19 355 4.8 4.8 0.00 0.00 0.00 93 1018.9
20260901214229 19 12 3.2 4.8 0.00 0.00 0.00 92 1019.0
20260901213729 19 314 1.6 1.6 0.00 0.00 0.00 93 1018.8
20260901213229 19 119 1.6 3.2 0.00 0.00 0.00 93 1018.7
20260901212729 18 1 3.2 4.8 0.00 0.00 0.00 93 1018.7
20260901212225 19 101 4.8 4.8 0.00 0.00 0.00 92 1018.6
20260901211720 19 25 1.6 1.6 0.00 0.00 0.00 92 1018.6
20260901211216 19 356 3.2 4.8 0.00 0.00 0.00 92 1018.6